• în România
  • Lista ţărilor
  • Pe 7 zile
  • Temperatura apei
  • Hartă satelitară
  • Meteo pe hartă
  • Widget-uri
  • user-avatar
    Intrare

    Meteo pe oră la Dumfries

    Astăzi, 22 Mai, Marţi

    Timp Temperatura Precipitaţii Vânt Presiune Umiditate
    00:00 +9°C° 0 mm 3 m/s 763 mmHg 90%
    01:00 +8°C° 0,2 mm 4 m/s 763 mmHg 90%
    02:00 +8°C° 0,2 mm 4 m/s 764 mmHg 89%
    03:00 +7°C° 0,2 mm 4 m/s 764 mmHg 88%
    04:00 +7°C° 0,1 mm 4 m/s 764 mmHg 87%
    05:00 +8°C° 0,1 mm 4 m/s 764 mmHg 86%
    06:00 +8°C° 0,1 mm 4 m/s 764 mmHg 85%
    07:00 +8°C° 0 mm 4 m/s 764 mmHg 83%
    08:00 +9°C° 0 mm 5 m/s 765 mmHg 82%
    09:00 +9°C° 0 mm 5 m/s 765 mmHg 80%
    10:00 +10°C° 0 mm 5 m/s 765 mmHg 78%
    11:00 +12°C° 0 mm 4 m/s 765 mmHg 76%
    12:00 +13°C° 0 mm 4 m/s 765 mmHg 74%
    13:00 +13°C° 0 mm 4 m/s 765 mmHg 73%
    14:00 +13°C° 0 mm 4 m/s 765 mmHg 72%
    15:00 +14°C° 0 mm 4 m/s 765 mmHg 72%
    16:00 +13°C° 0 mm 4 m/s 765 mmHg 74%
    17:00 +13°C° 0 mm 4 m/s 765 mmHg 76%
    18:00 +13°C° 0 mm 3 m/s 765 mmHg 78%
    19:00 +12°C° 0 mm 3 m/s 766 mmHg 82%
    20:00 +10°C° 0 mm 3 m/s 766 mmHg 85%
    21:00 +9°C° 0 mm 3 m/s 766 mmHg 89%
    22:00 +9°C° 0 mm 2 m/s 766 mmHg 91%
    23:00 +8°C° 0 mm 2 m/s 767 mmHg 93%

    Mâine, 23 Mai, Miercuri

    Timp Temperatura Precipitaţii Vânt Presiune Umiditate
    00:00 +7°C° 0 mm 2 m/s 767 mmHg 96%
    01:00 +7°C° 0 mm 2 m/s 767 mmHg 96%
    02:00 +7°C° 0 mm 2 m/s 767 mmHg 96%
    03:00 +7°C° 0 mm 1 m/s 767 mmHg 96%
    04:00 +7°C° 0 mm 2 m/s 767 mmHg 94%
    05:00 +8°C° 0 mm 2 m/s 767 mmHg 91%
    06:00 +8°C° 0 mm 2 m/s 768 mmHg 89%
    07:00 +10°C° 0 mm 2 m/s 768 mmHg 84%
    08:00 +12°C° 0 mm 2 m/s 768 mmHg 80%
    09:00 +12°C° 0 mm 3 m/s 768 mmHg 75%
    10:00 +13°C° 0 mm 3 m/s 768 mmHg 72%
    11:00 +14°C° 0 mm 3 m/s 768 mmHg 69%
    12:00 +16°C° 0 mm 3 m/s 768 mmHg 66%
    13:00 +17°C° 0 mm 3 m/s 768 mmHg 65%
    14:00 +17°C° 0 mm 3 m/s 768 mmHg 65%
    15:00 +18°C° 0 mm 3 m/s 767 mmHg 64%
    16:00 +17°C° 0 mm 3 m/s 767 mmHg 68%
    17:00 +17°C° 0 mm 3 m/s 767 mmHg 71%
    18:00 +16°C° 0 mm 3 m/s 767 mmHg 74%
    19:00 +13°C° 0 mm 3 m/s 767 mmHg 81%
    20:00 +12°C° 0 mm 2 m/s 768 mmHg 87%
    21:00 +9°C° 0 mm 2 m/s 768 mmHg 94%
    22:00 +8°C° 0 mm 2 m/s 768 mmHg 95%
    23:00 +8°C° 0 mm 2 m/s 768 mmHg 95%

    Poimâine, 24 Mai, Joi

    Timp Temperatura Precipitaţii Vânt Presiune Umiditate
    00:00 +7°C° 0 mm 2 m/s 768 mmHg 96%
    01:00 +7°C° 0 mm 1 m/s 768 mmHg 96%
    02:00 +7°C° 0 mm 1 m/s 768 mmHg 96%
    03:00 +7°C° 0 mm 1 m/s 768 mmHg 96%
    04:00 +8°C° 0 mm 1 m/s 768 mmHg 93%
    05:00 +9°C° 0 mm 1 m/s 767 mmHg 91%
    06:00 +10°C° 0 mm 1 m/s 767 mmHg 88%
    07:00 +12°C° 0 mm 1 m/s 767 mmHg 81%
    08:00 +13°C° 0 mm 2 m/s 767 mmHg 74%
    09:00 +15°C° 0 mm 2 m/s 767 mmHg 67%
    10:00 +17°C° 0 mm 2 m/s 767 mmHg 63%
    11:00 +18°C° 0 mm 2 m/s 767 mmHg 60%
    12:00 +20°C° 0 mm 2 m/s 767 mmHg 57%
    13:00 +20°C° 0 mm 2 m/s 767 mmHg 57%
    14:00 +21°C° 0 mm 2 m/s 767 mmHg 58%
    15:00 +21°C° 0 mm 2 m/s 766 mmHg 58%
    16:00 +20°C° 0 mm 2 m/s 766 mmHg 63%
    17:00 +20°C° 0 mm 2 m/s 766 mmHg 67%
    18:00 +19°C° 0 mm 3 m/s 766 mmHg 72%
    19:00 +17°C° 0 mm 2 m/s 767 mmHg 79%
    20:00 +15°C° 0 mm 2 m/s 767 mmHg 85%
    21:00 +13°C° 0 mm 1 m/s 767 mmHg 92%
    22:00 +12°C° 0 mm 1 m/s 767 mmHg 92%
    23:00 +12°C° 0 mm 1 m/s 767 mmHg 93%

    25 Mai, Vineri

    Timp Temperatura Precipitaţii Vânt Presiune Umiditate
    00:00 +11°C° 0 mm 1 m/s 768 mmHg 93%
    01:00 +11°C° 0 mm 1 m/s 768 mmHg 93%
    02:00 +10°C° 0 mm 1 m/s 768 mmHg 93%
    03:00 +10°C° 0 mm 1 m/s 768 mmHg 93%
    04:00 +10°C° 0 mm 2 m/s 768 mmHg 91%
    05:00 +12°C° 0 mm 2 m/s 768 mmHg 89%
    06:00 +13°C° 0 mm 2 m/s 768 mmHg 87%
    07:00 +13°C° 0 mm 3 m/s 768 mmHg 80%
    08:00 +16°C° 0 mm 3 m/s 768 mmHg 74%
    09:00 +17°C° 0 mm 4 m/s 768 mmHg 67%
    10:00 +17°C° 0 mm 5 m/s 768 mmHg 64%
    11:00 +19°C° 0 mm 5 m/s 768 mmHg 60%
    12:00 +20°C° 0 mm 6 m/s 768 mmHg 57%
    13:00 +20°C° 0 mm 6 m/s 768 mmHg 57%
    14:00 +20°C° 0 mm 6 m/s 768 mmHg 56%
    15:00 +20°C° 0 mm 6 m/s 768 mmHg 56%
    16:00 +19°C° 0 mm 6 m/s 768 mmHg 59%
    17:00 +17°C° 0 mm 6 m/s 768 mmHg 62%
    18:00 +16°C° 0 mm 5 m/s 768 mmHg 65%
    19:00 +15°C° 0 mm 5 m/s 768 mmHg 70%
    20:00 +13°C° 0 mm 4 m/s 769 mmHg 75%
    21:00 +11°C° 0 mm 4 m/s 769 mmHg 80%
    22:00 +10°C° 0 mm 4 m/s 770 mmHg 81%
    23:00 +10°C° 0 mm 4 m/s 770 mmHg 82%

    26 Mai, Sâmbătă

    Timp Temperatura Precipitaţii Vânt Presiune Umiditate
    00:00 +9°C° 0 mm 3 m/s 770 mmHg 84%
    01:00 +9°C° 0 mm 3 m/s 770 mmHg 83%
    02:00 +9°C° 0 mm 3 m/s 770 mmHg 82%
    03:00 +8°C° 0 mm 3 m/s 770 mmHg 81%
    04:00 +9°C° 0 mm 3 m/s 770 mmHg 78%
    05:00 +10°C° 0 mm 4 m/s 770 mmHg 75%
    06:00 +11°C° 0 mm 4 m/s 770 mmHg 72%
    07:00 +13°C° 0 mm 5 m/s 770 mmHg 69%
    08:00 +14°C° 0 mm 5 m/s 771 mmHg 65%
    09:00 +16°C° 0 mm 6 m/s 771 mmHg 62%
    10:00 +17°C° 0 mm 6 m/s 771 mmHg 60%
    11:00 +19°C° 0 mm 6 m/s 771 mmHg 59%
    12:00 +18°C° 0 mm 7 m/s 771 mmHg 57%
    13:00 +19°C° 0 mm 6 m/s 770 mmHg 57%
    14:00 +19°C° 0 mm 6 m/s 770 mmHg 57%
    15:00 +19°C° 0 mm 6 m/s 770 mmHg 57%
    16:00 +17°C° 0 mm 6 m/s 770 mmHg 60%
    17:00 +16°C° 0 mm 6 m/s 769 mmHg 62%
    18:00 +15°C° 0 mm 6 m/s 769 mmHg 65%
    19:00 +13°C° 0 mm 5 m/s 770 mmHg 69%
    20:00 +12°C° 0 mm 5 m/s 770 mmHg 74%
    21:00 +10°C° 0 mm 4 m/s 770 mmHg 78%
    22:00 +8°C° 0 mm 4 m/s 770 mmHg 77%
    23:00 +8°C° 0 mm 4 m/s 770 mmHg 77%

    27 Mai, Duminică

    Timp Temperatura Precipitaţii Vânt Presiune Umiditate
    00:00 +7°C° 0 mm 4 m/s 769 mmHg 76%
    01:00 +7°C° 0 mm 4 m/s 769 mmHg 76%
    02:00 +7°C° 0 mm 4 m/s 769 mmHg 76%
    03:00 +7°C° 0 mm 4 m/s 768 mmHg 76%
    04:00 +7°C° 0 mm 4 m/s 768 mmHg 76%
    05:00 +8°C° 0 mm 4 m/s 768 mmHg 76%
    06:00 +9°C° 0 mm 5 m/s 767 mmHg 76%
    07:00 +12°C° 0 mm 5 m/s 767 mmHg 75%
    08:00 +13°C° 0 mm 5 m/s 767 mmHg 74%
    09:00 +15°C° 0 mm 6 m/s 766 mmHg 73%
    10:00 +16°C° 0 mm 6 m/s 766 mmHg 70%
    11:00 +17°C° 0 mm 7 m/s 766 mmHg 67%
    12:00 +20°C° 0 mm 7 m/s 765 mmHg 64%
    13:00 +20°C° 0 mm 7 m/s 765 mmHg 64%
    14:00 +20°C° 0 mm 7 m/s 765 mmHg 64%
    15:00 +20°C° 0 mm 7 m/s 764 mmHg 63%
    16:00 +20°C° 0 mm 7 m/s 764 mmHg 66%
    17:00 +19°C° 0 mm 6 m/s 764 mmHg 69%
    18:00 +17°C° 0 mm 5 m/s 764 mmHg 72%
    19:00 +16°C° 0 mm 5 m/s 764 mmHg 78%
    20:00 +14°C° 0 mm 4 m/s 764 mmHg 83%
    21:00 +12°C° 0 mm 4 m/s 765 mmHg 89%
    22:00 +12°C° 0 mm 3 m/s 764 mmHg 90%
    23:00 +11°C° 0 mm 3 m/s 764 mmHg 90%
    Arată mai mult